QPF
0.01 0.01 0.03 0.04 0.02 0.02 0.02 0.02 0.03 0.04 0.04 0.03 0.03 0.03 0.02 0.02 0.02 0.03 0.04 0.05 0.06 0.06 0.06 0.06 0.04 0.02 0.04 0.04 0.03 0.02 0.02 0.02 0.02 0.02 0.02 0.03 0.04 0.02 0.02 0.03 0.02 0.03 0.03
0.00 0.01 0.02 0.03 0.02 0.01 0.02 0.02 0.02 0.03 0.04 0.02 0.03 0.03 0.03 0.02 0.02 0.03 0.03 0.05 0.06 0.04 0.05 0.06 0.04 0.03 0.03 0.03 0.02 0.02 0.01 0.01 0.00 0.00 0.00 0.01 0.03 0.03 0.02 0.02 0.02 0.03 0.04
0.00 0.01 0.02 0.02 0.02 0.01 0.02 0.02 0.02 0.03 0.03 0.03 0.03 0.03 0.03 0.02 0.02 0.02 0.03 0.03 0.05 0.04 0.04 0.04 0.04 0.03 0.03 0.02 0.01 0.01 0.01 0.00 0.00 0.00 0.00 0.01 0.02 0.03 0.02 0.02 0.03 0.04 0.05
0.00 0.01 0.02 0.02 0.02 0.02 0.03 0.03 0.02 0.02 0.03 0.04 0.03 0.03 0.03 0.03 0.02 0.02 0.02 0.03 0.04 0.04 0.04 0.03 0.02 0.02 0.02 0.02 0.02 0.02 0.01 0.01 0.00 0.00 0.00 0.00 0.01 0.03 0.03 0.02 0.03 0.04 0.05
0.00 0.01 0.01 0.02 0.02 0.03 0.04 0.04 0.04 0.02 0.03 0.04 0.04 0.03 0.02 0.02 0.02 0.03 0.03 0.03 0.03 0.03 0.03 0.02 0.01 0.01 0.01 0.01 0.01 0.02 0.02 0.01 0.00 0.00 0.00 0.00 0.01 0.03 0.03 0.02 0.02 0.03 0.05
0.00 0.00 0.01 0.02 0.02 0.02 0.02 0.03 0.05 0.04 0.03 0.03 0.04 0.04 0.03 0.02 0.02 0.03 0.03 0.03 0.03 0.03 0.01 0.01 0.01 0.01 0.01 0.00 0.01 0.01 0.00 0.00 0.00 0.00 0.00 0.00 0.01 0.03 0.04 0.03 0.02 0.03 0.04
0.00 0.01 0.01 0.02 0.03 0.03 0.03 0.04 0.04 0.04 0.04 0.03 0.03 0.03 0.03 0.03 0.02 0.02 0.02 0.03 0.03 0.02 0.02 0.01 0.01 0.00 0.00 0.00 0.00 0.00 0.00 0.00 0.00 0.00 0.00 0.00 0.01 0.03 0.04 0.03 0.02 0.02 0.03
0.00 0.01 0.01 0.02 0.03 0.04 0.03 0.05 0.06 0.04 0.03 0.04 0.04 0.04 0.05 0.04 0.03 0.03 0.02 0.02 0.02 0.01 0.01 0.01 0.01 0.01 0.00 0.00 0.00 0.00 0.00 0.00 0.00 0.00 0.00 0.00 0.01 0.03 0.04 0.03 0.01 0.02 0.02
0.01 0.01 0.01 0.02 0.03 0.04 0.03 0.05 0.08 0.05 0.04 0.03 0.04 0.03 0.04 0.04 0.04 0.03 0.03 0.02 0.01 0.01 0.01 0.01 0.01 0.01 0.00 0.00 0.00 0.00 0.00 0.00 0.00 0.00 0.00 0.01 0.01 0.03 0.03 0.02 0.02 0.02 0.01
0.00 0.01 0.01 0.01 0.02 0.03 0.04 0.04 0.05 0.05 0.04 0.03 0.02 0.02 0.03 0.04 0.04 0.03 0.02 0.01 0.01 0.01 0.01 0.01 0.01 0.01 0.01 0.00 0.00 0.00 0.00 0.00 0.00 0.00 0.00 0.01 0.01 0.02 0.03 0.02 0.03 0.02 0.01
0.01 0.01 0.01 0.01 0.02 0.03 0.03 0.03 0.04 0.04 0.03 0.03 0.02 0.02 0.03 0.03 0.03 0.03 0.02 0.01 0.01 0.01 0.01 0.01 0.01 0.01 0.01 0.01 0.00 0.00 0.00 0.00 0.00 0.00 0.01 0.01 0.01 0.02 0.03 0.02 0.02 0.03 0.02
0.00 0.01 0.01 0.01 0.01 0.03 0.04 0.03 0.03 0.03 0.03 0.03 0.03 0.03 0.02 0.02 0.02 0.02 0.03 0.03 0.02 0.01 0.01 0.01 0.01 0.01 0.00 0.01 0.00 0.00 0.01 0.01 0.01 0.01 0.01 0.01 0.02 0.03 0.03 0.02 0.03 0.03 0.03
0.00 0.00 0.00 0.01 0.01 0.02 0.03 0.04 0.04 0.03 0.03 0.02 0.03 0.04 0.03 0.02 0.01 0.02 0.02 0.02 0.02 0.02 0.01 0.01 0.01 0.00 0.00 0.00 0.00 0.00 0.00 0.00 0.00 0.00 0.01 0.01 0.02 0.02 0.03 0.03 0.02 0.02 0.03
0.00 0.00 0.01 0.01 0.01 0.01 0.02 0.02 0.03 0.03 0.03 0.02 0.03 0.04 0.04 0.03 0.02 0.01 0.02 0.01 0.01 0.01 0.01 0.01 0.01 0.00 0.00 0.00 0.00 0.00 0.00 0.00 0.00 0.01 0.01 0.01 0.01 0.02 0.03 0.02 0.02 0.02 0.02
0.00 0.00 0.01 0.01 0.01 0.01 0.01 0.02 0.02 0.02 0.02 0.02 0.03 0.04 0.04 0.04 0.03 0.02 0.01 0.01 0.01 0.01 0.01 0.01 0.01 0.01 0.00 0.00 0.00 0.00 0.00 0.00 0.00 0.01 0.01 0.01 0.01 0.02 0.03 0.03 0.03 0.02 0.02
0.01 0.01 0.01 0.01 0.01 0.01 0.01 0.01 0.02 0.02 0.02 0.02 0.03 0.04 0.04 0.04 0.04 0.03 0.03 0.02 0.01 0.01 0.00 0.01 0.01 0.01 0.01 0.01 0.00 0.00 0.00 0.00 0.00 0.01 0.00 0.00 0.00 0.01 0.02 0.03 0.03 0.01 0.01
0.01 0.01 0.01 0.02 0.01 0.01 0.01 0.01 0.02 0.02 0.03 0.03 0.03 0.04 0.05 0.05 0.05 0.05 0.03 0.02 0.01 0.01 0.01 0.01 0.01 0.01 0.01 0.01 0.01 0.01 0.01 0.00 0.00 0.00 0.00 0.00 0.00 0.00 0.01 0.02 0.03 0.02 0.01
0.01 0.01 0.01 0.01 0.02 0.01 0.01 0.01 0.01 0.02 0.02 0.02 0.02 0.03 0.06 0.07 0.08 0.07 0.04 0.03 0.02 0.01 0.01 0.01 0.01 0.01 0.01 0.01 0.00 0.01 0.01 0.01 0.00 0.00 0.00 0.00 0.00 0.00 0.00 0.02 0.02 0.02 0.02
0.00 0.01 0.01 0.01 0.01 0.02 0.01 0.01 0.01 0.02 0.02 0.02 0.02 0.02 0.04 0.06 0.07 0.06 0.05 0.05 0.03 0.03 0.02 0.01 0.01 0.00 0.00 0.01 0.01 0.00 0.01 0.01 0.01 0.00 0.00 0.00 0.00 0.00 0.00 0.01 0.02 0.02 0.02
0.01 0.01 0.01 0.01 0.01 0.01 0.02 0.01 0.01 0.02 0.02 0.02 0.02 0.02 0.02 0.05 0.07 0.06 0.05 0.04 0.04 0.03 0.03 0.02 0.01 0.00 0.00 0.00 0.01 0.01 0.01 0.00 0.01 0.01 0.00 0.00 0.00 0.00 0.00 0.00 0.01 0.01 0.02
0.01 0.01 0.01 0.01 0.01 0.02 0.02 0.01 0.02 0.02 0.02 0.02 0.02 0.02 0.02 0.03 0.03 0.03 0.04 0.04 0.03 0.03 0.03 0.02 0.02 0.01 0.01 0.00 0.01 0.01 0.01 0.01 0.01 0.01 0.01 0.00 0.00 0.00 0.00 0.00 0.01 0.01 0.02
0.01 0.01 0.01 0.01 0.01 0.01 0.01 0.01 0.01 0.02 0.02 0.02 0.02 0.02 0.02 0.02 0.02 0.02 0.02 0.03 0.03 0.03 0.02 0.02 0.02 0.01 0.01 0.01 0.01 0.01 0.01 0.01 0.01 0.01 0.01 0.01 0.01 0.01 0.01 0.01 0.01 0.01 0.01
0.01 0.02 0.01 0.01 0.01 0.01 0.01 0.01 0.01 0.02 0.03 0.02 0.02 0.02 0.02 0.01 0.01 0.01 0.01 0.02 0.02 0.02 0.02 0.02 0.02 0.01 0.01 0.01 0.01 0.01 0.01 0.01 0.01 0.00 0.00 0.01 0.01 0.01 0.01 0.01 0.01 0.01 0.01
0.01 0.01 0.02 0.01 0.01 0.00 0.01 0.01 0.01 0.01 0.03 0.03 0.03 0.03 0.02 0.01 0.01 0.01 0.01 0.01 0.01 0.01 0.01 0.02 0.03 0.02 0.02 0.01 0.01 0.01 0.00 0.00 0.00 0.00 0.00 0.00 0.00 0.01 0.01 0.01 0.01 0.00 0.01
0.00 0.01 0.01 0.02 0.01 0.01 0.01 0.01 0.01 0.01 0.02 0.04 0.04 0.04 0.03 0.02 0.01 0.01 0.01 0.01 0.01 0.01 0.01 0.01 0.02 0.02 0.02 0.02 0.01 0.01 0.00 0.00 0.00 0.01 0.00 0.00 0.00 0.00 0.01 0.01 0.01 0.01 0.01
0.00 0.01 0.01 0.02 0.02 0.01 0.01 0.01 0.01 0.02 0.02 0.03 0.05 0.05 0.04 0.03 0.01 0.01 0.01 0.01 0.01 0.01 0.01 0.01 0.01 0.01 0.02 0.02 0.01 0.01 0.01 0.01 0.00 0.00 0.01 0.00 0.00 0.00 0.01 0.01 0.02 0.01 0.01
MSLP
1018.91 1019.21 1019.47 1019.66 1019.78 1019.85 1019.86 1019.84 1019.78 1019.71 1019.65 1019.62 1019.62 1019.67 1019.77 1019.89 1020.04 1020.18 1020.30 1020.39 1020.43 1020.44 1020.42 1020.40 1020.38 1020.38 1020.40 1020.43 1020.46 1020.49 1020.51 1020.51 1020.49 1020.47 1020.46 1020.47 1020.50 1020.55 1020.62 1020.69 1020.74 1020.77 1020.78
1018.82 1019.11 1019.35 1019.56 1019.73 1019.86 1019.95 1020.01 1020.03 1020.03 1020.03 1020.03 1020.07 1020.15 1020.26 1020.41 1020.57 1020.73 1020.85 1020.93 1020.95 1020.94 1020.90 1020.86 1020.82 1020.81 1020.82 1020.84 1020.86 1020.86 1020.85 1020.81 1020.77 1020.72 1020.69 1020.70 1020.74 1020.81 1020.91 1021.00 1021.08 1021.13 1021.15
1018.81 1019.06 1019.29 1019.51 1019.71 1019.90 1020.06 1020.20 1020.30 1020.38 1020.43 1020.49 1020.56 1020.67 1020.80 1020.96 1021.12 1021.26 1021.37 1021.42 1021.42 1021.38 1021.32 1021.26 1021.21 1021.19 1021.19 1021.20 1021.20 1021.18 1021.14 1021.06 1020.98 1020.91 1020.86 1020.86 1020.91 1021.00 1021.12 1021.25 1021.36 1021.43 1021.47
1018.89 1019.11 1019.32 1019.54 1019.77 1020.00 1020.22 1020.42 1020.60 1020.74 1020.86 1020.96 1021.07 1021.19 1021.33 1021.48 1021.63 1021.75 1021.83 1021.85 1021.82 1021.76 1021.67 1021.60 1021.55 1021.53 1021.53 1021.53 1021.53 1021.49 1021.41 1021.31 1021.19 1021.08 1021.02 1021.01 1021.06 1021.16 1021.30 1021.45 1021.59 1021.69 1021.76
1019.09 1019.28 1019.47 1019.68 1019.91 1020.17 1020.43 1020.69 1020.91 1021.11 1021.27 1021.41 1021.54 1021.68 1021.82 1021.96 1022.08 1022.18 1022.22 1022.21 1022.16 1022.07 1021.99 1021.91 1021.87 1021.86 1021.88 1021.89 1021.88 1021.83 1021.73 1021.60 1021.45 1021.32 1021.22 1021.20 1021.24 1021.35 1021.49 1021.65 1021.81 1021.93 1022.02
1019.37 1019.53 1019.70 1019.90 1020.13 1020.40 1020.69 1020.97 1021.23 1021.46 1021.65 1021.82 1021.97 1022.11 1022.25 1022.38 1022.48 1022.55 1022.57 1022.54 1022.47 1022.38 1022.30 1022.24 1022.22 1022.24 1022.27 1022.30 1022.29 1022.24 1022.13 1021.97 1021.80 1021.64 1021.53 1021.48 1021.51 1021.60 1021.74 1021.89 1022.04 1022.17 1022.27
1019.66 1019.81 1019.96 1020.16 1020.39 1020.66 1020.96 1021.26 1021.54 1021.79 1022.00 1022.19 1022.36 1022.51 1022.65 1022.77 1022.86 1022.91 1022.92 1022.88 1022.81 1022.73 1022.67 1022.63 1022.64 1022.68 1022.73 1022.77 1022.77 1022.72 1022.60 1022.44 1022.25 1022.08 1021.95 1021.88 1021.88 1021.95 1022.06 1022.19 1022.32 1022.43 1022.52
1019.90 1020.05 1020.21 1020.41 1020.65 1020.92 1021.23 1021.54 1021.83 1022.10 1022.33 1022.54 1022.72 1022.89 1023.04 1023.16 1023.26 1023.31 1023.31 1023.28 1023.22 1023.16 1023.11 1023.10 1023.13 1023.18 1023.25 1023.29 1023.30 1023.24 1023.12 1022.96 1022.77 1022.59 1022.45 1022.37 1022.36 1022.40 1022.48 1022.57 1022.66 1022.73 1022.79
1020.05 1020.22 1020.39 1020.61 1020.86 1021.16 1021.48 1021.81 1022.12 1022.41 1022.67 1022.90 1023.11 1023.29 1023.46 1023.60 1023.70 1023.76 1023.78 1023.76 1023.71 1023.66 1023.63 1023.63 1023.66 1023.72 1023.78 1023.82 1023.81 1023.75 1023.64 1023.48 1023.30 1023.14 1023.00 1022.92 1022.90 1022.92 1022.96 1023.02 1023.06 1023.09 1023.11
1020.08 1020.28 1020.50 1020.75 1021.04 1021.37 1021.72 1022.07 1022.41 1022.73 1023.02 1023.29 1023.52 1023.74 1023.93 1024.08 1024.20 1024.28 1024.30 1024.29 1024.26 1024.22 1024.19 1024.18 1024.20 1024.24 1024.28 1024.30 1024.28 1024.21 1024.10 1023.95 1023.80 1023.66 1023.55 1023.49 1023.46 1023.47 1023.49 1023.51 1023.52 1023.51 1023.49
1020.01 1020.27 1020.54 1020.84 1021.18 1021.56 1021.95 1022.34 1022.72 1023.08 1023.41 1023.70 1023.97 1024.21 1024.42 1024.60 1024.73 1024.82 1024.85 1024.85 1024.82 1024.78 1024.74 1024.72 1024.71 1024.72 1024.72 1024.71 1024.67 1024.59 1024.48 1024.36 1024.24 1024.13 1024.06 1024.03 1024.02 1024.03 1024.04 1024.04 1024.02 1023.98 1023.92
1019.88 1020.19 1020.53 1020.90 1021.30 1021.73 1022.18 1022.62 1023.04 1023.44 1023.80 1024.13 1024.43 1024.69 1024.92 1025.10 1025.24 1025.33 1025.37 1025.36 1025.33 1025.28 1025.23 1025.19 1025.15 1025.12 1025.09 1025.05 1024.99 1024.91 1024.82 1024.72 1024.64 1024.58 1024.56 1024.56 1024.58 1024.60 1024.61 1024.59 1024.55 1024.49 1024.42
1019.71 1020.09 1020.50 1020.93 1021.40 1021.89 1022.39 1022.88 1023.34 1023.78 1024.18 1024.53 1024.85 1025.12 1025.35 1025.54 1025.67 1025.76 1025.79 1025.78 1025.75 1025.69 1025.63 1025.57 1025.52 1025.47 1025.42 1025.36 1025.30 1025.22 1025.15 1025.09 1025.05 1025.04 1025.06 1025.10 1025.14 1025.17 1025.18 1025.16 1025.11 1025.04 1024.97
1019.53 1019.98 1020.45 1020.95 1021.47 1022.01 1022.56 1023.09 1023.59 1024.06 1024.48 1024.86 1025.19 1025.46 1025.69 1025.87 1025.99 1026.06 1026.09 1026.08 1026.05 1026.00 1025.94 1025.89 1025.84 1025.79 1025.75 1025.70 1025.64 1025.59 1025.55 1025.53 1025.53 1025.56 1025.62 1025.68 1025.74 1025.78 1025.78 1025.76 1025.70 1025.62 1025.54
1019.32 1019.83 1020.36 1020.91 1021.49 1022.07 1022.65 1023.22 1023.76 1024.25 1024.69 1025.08 1025.41 1025.68 1025.90 1026.06 1026.18 1026.24 1026.27 1026.26 1026.24 1026.21 1026.18 1026.16 1026.14 1026.12 1026.11 1026.09 1026.08 1026.07 1026.07 1026.09 1026.13 1026.19 1026.26 1026.33 1026.39 1026.42 1026.42 1026.37 1026.30 1026.21 1026.13
1019.07 1019.62 1020.20 1020.79 1021.41 1022.03 1022.64 1023.23 1023.79 1024.31 1024.76 1025.16 1025.49 1025.77 1025.98 1026.14 1026.25 1026.32 1026.35 1026.36 1026.37 1026.37 1026.38 1026.41 1026.44 1026.48 1026.53 1026.57 1026.61 1026.66 1026.70 1026.76 1026.83 1026.91 1026.99 1027.06 1027.11 1027.12 1027.09 1027.02 1026.93 1026.82 1026.73
1018.75 1019.33 1019.94 1020.56 1021.20 1021.85 1022.50 1023.12 1023.70 1024.24 1024.72 1025.13 1025.47 1025.76 1025.98 1026.14 1026.26 1026.33 1026.38 1026.42 1026.46 1026.51 1026.58 1026.66 1026.76 1026.87 1026.99 1027.10 1027.21 1027.31 1027.40 1027.50 1027.59 1027.69 1027.77 1027.82 1027.85 1027.84 1027.78 1027.69 1027.57 1027.44 1027.33
1018.35 1018.94 1019.56 1020.21 1020.88 1021.55 1022.23 1022.88 1023.50 1024.06 1024.57 1025.00 1025.37 1025.68 1025.92 1026.10 1026.24 1026.34 1026.41 1026.48 1026.56 1026.65 1026.77 1026.91 1027.07 1027.25 1027.43 1027.61 1027.78 1027.94 1028.08 1028.21 1028.32 1028.43 1028.51 1028.56 1028.57 1028.55 1028.47 1028.36 1028.23 1028.08 1027.95
1017.90 1018.48 1019.09 1019.75 1020.44 1021.15 1021.86 1022.56 1023.21 1023.81 1024.35 1024.83 1025.23 1025.57 1025.84 1026.06 1026.23 1026.36 1026.46 1026.56 1026.67 1026.79 1026.95 1027.13 1027.34 1027.56 1027.80 1028.03 1028.24 1028.44 1028.62 1028.78 1028.92 1029.03 1029.13 1029.19 1029.21 1029.19 1029.13 1029.02 1028.88 1028.73 1028.58
1017.45 1017.99 1018.58 1019.24 1019.96 1020.70 1021.45 1022.19 1022.88 1023.53 1024.11 1024.62 1025.07 1025.44 1025.76 1026.02 1026.23 1026.40 1026.53 1026.66 1026.78 1026.93 1027.09 1027.29 1027.52 1027.77 1028.03 1028.28 1028.53 1028.75 1028.95 1029.13 1029.29 1029.43 1029.55 1029.64 1029.70 1029.72 1029.69 1029.63 1029.52 1029.39 1029.24
1017.09 1017.55 1018.10 1018.76 1019.49 1020.26 1021.05 1021.82 1022.56 1023.23 1023.85 1024.40 1024.88 1025.30 1025.67 1025.97 1026.23 1026.43 1026.60 1026.74 1026.88 1027.02 1027.19 1027.38 1027.60 1027.84 1028.09 1028.35 1028.60 1028.83 1029.04 1029.23 1029.41 1029.58 1029.74 1029.88 1030.00 1030.09 1030.14 1030.14 1030.10 1030.01 1029.89
1016.88 1017.24 1017.74 1018.37 1019.10 1019.89 1020.71 1021.50 1022.26 1022.95 1023.59 1024.16 1024.67 1025.13 1025.54 1025.89 1026.19 1026.43 1026.63 1026.79 1026.93 1027.07 1027.22 1027.39 1027.58 1027.79 1028.02 1028.26 1028.49 1028.71 1028.91 1029.11 1029.30 1029.50 1029.70 1029.90 1030.10 1030.28 1030.43 1030.53 1030.58 1030.56 1030.50
1016.89 1017.13 1017.55 1018.14 1018.86 1019.65 1020.46 1021.25 1022.00 1022.69 1023.32 1023.89 1024.41 1024.90 1025.34 1025.73 1026.08 1026.37 1026.60 1026.78 1026.93 1027.07 1027.20 1027.34 1027.50 1027.68 1027.87 1028.07 1028.27 1028.47 1028.65 1028.84 1029.03 1029.24 1029.47 1029.73 1030.01 1030.28 1030.54 1030.75 1030.91 1030.99 1031.00
1017.13 1017.24 1017.58 1018.12 1018.80 1019.55 1020.33 1021.09 1021.79 1022.44 1023.03 1023.58 1024.10 1024.59 1025.06 1025.49 1025.89 1026.22 1026.50 1026.72 1026.89 1027.02 1027.15 1027.27 1027.41 1027.56 1027.72 1027.89 1028.06 1028.21 1028.37 1028.52 1028.70 1028.90 1029.15 1029.44 1029.77 1030.12 1030.47 1030.79 1031.05 1031.24 1031.34
1017.59 1017.58 1017.82 1018.29 1018.90 1019.59 1020.31 1020.99 1021.63 1022.20 1022.73 1023.24 1023.73 1024.23 1024.72 1025.19 1025.63 1026.02 1026.35 1026.61 1026.82 1026.97 1027.11 1027.23 1027.36 1027.50 1027.64 1027.78 1027.92 1028.04 1028.15 1028.27 1028.41 1028.58 1028.81 1029.10 1029.45 1029.84 1030.25 1030.65 1031.00 1031.28 1031.48
1018.22 1018.10 1018.25 1018.63 1019.16 1019.76 1020.38 1020.97 1021.50 1021.98 1022.44 1022.88 1023.35 1023.84 1024.34 1024.86 1025.35 1025.80 1026.18 1026.49 1026.74 1026.93 1027.09 1027.23 1027.37 1027.51 1027.65 1027.78 1027.90 1027.99 1028.07 1028.14 1028.22 1028.34 1028.52 1028.77 1029.10 1029.49 1029.92 1030.35 1030.77 1031.12 1031.40
Thickness
5682 5682 5681 5682 5683 5684 5684 5684 5685 5685 5686 5687 5687 5688 5688 5689 5689 5690 5691 5692 5693 5694 5694 5695 5696 5696 5697 5698 5698 5698 5699 5699 5700 5701 5702 5702 5702 5702 5702 5703 5704 5704 5703
5679 5679 5678 5679 5679 5680 5680 5680 5681 5681 5682 5682 5683 5683 5684 5684 5685 5686 5687 5688 5689 5690 5690 5691 5691 5692 5692 5693 5694 5694 5694 5695 5695 5697 5698 5699 5698 5698 5699 5699 5700 5700 5699
5675 5675 5675 5675 5676 5676 5676 5676 5676 5677 5677 5678 5678 5679 5679 5680 5681 5682 5682 5683 5684 5685 5686 5686 5687 5687 5687 5688 5689 5689 5690 5690 5691 5693 5695 5696 5695 5694 5695 5695 5695 5695 5696
5670 5670 5671 5671 5671 5672 5672 5671 5672 5672 5672 5673 5673 5674 5674 5675 5676 5677 5677 5678 5679 5680 5681 5681 5682 5682 5683 5683 5684 5684 5685 5685 5687 5689 5692 5692 5691 5690 5691 5691 5691 5691 5692
5664 5665 5666 5666 5667 5667 5667 5667 5667 5667 5667 5668 5668 5669 5669 5670 5670 5671 5672 5673 5673 5674 5675 5676 5677 5678 5678 5678 5679 5679 5680 5681 5683 5685 5686 5687 5687 5685 5686 5687 5687 5687 5687
5659 5659 5660 5660 5661 5661 5662 5662 5662 5662 5662 5662 5663 5663 5664 5665 5665 5666 5667 5667 5668 5669 5670 5671 5671 5672 5673 5673 5674 5674 5675 5677 5679 5681 5682 5682 5682 5680 5681 5682 5682 5683 5683
5653 5653 5654 5654 5655 5656 5656 5656 5657 5657 5657 5657 5658 5658 5658 5659 5659 5660 5661 5661 5662 5663 5664 5665 5666 5667 5667 5668 5668 5669 5670 5672 5675 5676 5676 5676 5676 5676 5676 5677 5677 5678 5678
5647 5647 5647 5648 5648 5649 5650 5650 5651 5651 5651 5651 5652 5652 5653 5653 5653 5654 5655 5655 5656 5657 5658 5659 5660 5661 5662 5662 5663 5663 5664 5666 5669 5671 5671 5671 5670 5671 5671 5672 5672 5673 5673
5640 5641 5641 5641 5641 5642 5643 5644 5644 5645 5645 5645 5645 5645 5646 5647 5647 5648 5649 5649 5650 5651 5652 5653 5654 5655 5656 5656 5657 5658 5659 5661 5665 5665 5665 5665 5664 5665 5666 5666 5667 5667 5668
5633 5634 5634 5635 5635 5636 5636 5637 5637 5637 5637 5638 5638 5638 5639 5639 5640 5641 5642 5642 5643 5644 5645 5646 5647 5648 5649 5650 5651 5652 5654 5656 5658 5659 5660 5659 5659 5660 5660 5661 5661 5662 5662
5625 5626 5627 5628 5629 5629 5629 5629 5629 5629 5630 5630 5630 5631 5632 5633 5633 5634 5634 5635 5636 5637 5638 5639 5640 5641 5643 5643 5644 5646 5648 5651 5652 5653 5653 5652 5653 5654 5654 5655 5655 5656 5656
5619 5618 5619 5620 5621 5621 5622 5622 5622 5622 5623 5624 5624 5624 5625 5626 5626 5626 5626 5627 5628 5630 5631 5632 5633 5634 5636 5638 5638 5640 5642 5644 5645 5645 5645 5646 5647 5647 5648 5648 5649 5650 5650
5612 5611 5611 5611 5612 5613 5613 5614 5615 5615 5615 5616 5617 5617 5618 5618 5619 5619 5620 5620 5622 5623 5624 5624 5626 5628 5630 5631 5632 5633 5635 5636 5638 5638 5638 5638 5640 5641 5641 5642 5642 5643 5644
5605 5604 5603 5603 5604 5604 5605 5606 5607 5607 5608 5608 5609 5610 5611 5611 5612 5612 5612 5613 5615 5615 5616 5617 5619 5620 5622 5623 5625 5626 5627 5629 5629 5630 5630 5631 5632 5634 5634 5635 5635 5636 5637
5597 5597 5596 5595 5596 5596 5597 5598 5598 5598 5599 5600 5600 5601 5602 5604 5604 5604 5605 5605 5606 5607 5609 5610 5611 5612 5614 5615 5616 5618 5619 5620 5621 5622 5622 5622 5624 5625 5627 5627 5628 5629 5629
5590 5589 5589 5588 5588 5588 5589 5589 5589 5590 5590 5591 5592 5593 5593 5595 5596 5596 5597 5597 5598 5598 5600 5601 5602 5603 5605 5606 5607 5609 5610 5611 5612 5613 5614 5615 5615 5617 5618 5619 5620 5621 5622
5582 5582 5581 5580 5579 5580 5580 5580 5580 5580 5581 5582 5583 5584 5585 5585 5586 5587 5588 5588 5589 5589 5590 5591 5592 5594 5595 5596 5598 5599 5601 5602 5603 5604 5605 5606 5607 5608 5609 5610 5611 5612 5613
5574 5574 5572 5572 5571 5571 5571 5571 5571 5571 5572 5573 5574 5575 5576 5576 5576 5577 5578 5579 5579 5579 5581 5582 5583 5584 5585 5586 5587 5589 5590 5592 5593 5595 5596 5597 5599 5600 5600 5601 5602 5603 5604
5566 5565 5564 5564 5563 5563 5562 5561 5561 5562 5562 5563 5564 5565 5565 5565 5566 5567 5567 5568 5568 5569 5570 5571 5572 5573 5574 5575 5576 5577 5580 5582 5583 5585 5587 5588 5589 5590 5591 5592 5593 5594 5595
5556 5556 5556 5555 5554 5553 5552 5551 5551 5551 5551 5553 5553 5554 5554 5555 5555 5556 5556 5556 5557 5559 5560 5560 5561 5561 5563 5563 5565 5566 5568 5570 5572 5575 5577 5578 5579 5580 5582 5583 5584 5585 5585
5545 5546 5546 5545 5544 5544 5543 5542 5542 5542 5541 5542 5543 5543 5543 5544 5544 5545 5545 5545 5546 5548 5549 5549 5550 5550 5551 5551 5554 5556 5558 5560 5562 5564 5566 5568 5569 5570 5572 5573 5574 5575 5576
5535 5536 5536 5536 5535 5534 5534 5533 5533 5532 5531 5531 5531 5531 5532 5533 5533 5533 5534 5534 5535 5536 5537 5538 5538 5539 5539 5540 5543 5547 5551 5552 5552 5554 5555 5557 5559 5561 5562 5563 5564 5565 5566
5524 5524 5525 5525 5524 5523 5522 5522 5521 5520 5520 5520 5520 5521 5521 5521 5521 5521 5522 5522 5523 5524 5525 5526 5527 5528 5529 5528 5530 5535 5541 5547 5544 5544 5545 5547 5548 5550 5552 5553 5554 5555 5556
5512 5512 5512 5512 5512 5511 5511 5512 5513 5513 5513 5512 5510 5510 5509 5509 5509 5509 5509 5510 5511 5512 5513 5514 5515 5516 5518 5519 5518 5520 5524 5529 5532 5535 5535 5536 5537 5539 5541 5543 5544 5545 5546
5499 5499 5500 5500 5500 5500 5500 5501 5502 5503 5502 5500 5499 5498 5497 5497 5497 5497 5497 5497 5498 5499 5500 5501 5502 5504 5506 5508 5510 5510 5512 5514 5518 5523 5528 5527 5527 5528 5529 5531 5533 5535 5536
5487 5487 5488 5488 5488 5488 5488 5489 5490 5491 5491 5489 5488 5487 5486 5486 5486 5485 5485 5485 5486 5487 5488 5489 5490 5493 5495 5497 5498 5501 5503 5505 5508 5510 5515 5517 5518 5518 5518 5520 5522 5524 5525